Regional Weather Roundup
Issued by NWS Little Rock, AR

Home | Current Version | Previous Version | Text Only | Print | Product List | Glossary Off
Versions: 1 2 3 4 5 6 7 8 9 10 11 12 13 14 15 16 17 18 19 20 21 22 23 24 25 26 27 28 29 30 31 32 33 34 35 36 37 38 39 40 41 42 43 44 45 46 47 48 49 50

000
ASUS44 KLZK 300705
RWRLZK

WEATHER ROUNDUP FOR ARKANSAS
NATIONAL WEATHER SERVICE LITTLE ROCK AR
200 AM CDT SAT AUG 30 2014

NOTE: "FAIR" INDICATES FEW OR NO CLOUDS BELOW 12,000 FEET WITH NO
SIGNIFICANT WEATHER AND/OR OBSTRUCTIONS TO VISIBILITY.

ARZ001-003-010-029-300800-
NORTHWEST ARKANSAS

CITY           SKY/WX    TMP DP  RH WIND       PRES   REMARKS
FAYETTEVILLE   PTCLDY    71  68  90 CALM      29.98S
FORT SMITH     MOCLDY    73  71  93 E7        29.95S
HARRISON       CLOUDY    71  68  90 SE7       30.00R
BENTONVILLE    PTCLDY    72  66  83 S3        29.98S
ROGERS         PTCLDY    71  66  84 SE7       29.98F
SILOAM SPGS    PTCLDY    72  63  73 S7        29.97F
HIGHFILL       PTCLDY    71  66  84 S5        29.97S
$$

ARZ004-005-016-300800-
NORTH CENTRAL ARKANSAS

CITY           SKY/WX    TMP DP  RH WIND       PRES   REMARKS
BATESVILLE     CLOUDY    73  70  88 CALM      29.97F
FLIPPIN        CLOUDY    72  66  83 CALM      29.98S
MTN HOME       CLOUDY    71  70  96 S5        29.98S
$$

ARZ040-041-300800-
WEST CENTRAL ARKANSAS

CITY           SKY/WX    TMP DP  RH WIND       PRES   REMARKS
MENA           CLOUDY    73  73 100 CALM      29.99S VSB 1/2
MOUNT IDA      CLOUDY    73  71  93 CALM      29.96S FOG
$$

ARZ009-017-025-026-028-300800-
NORTHEAST ARKANSAS

CITY           SKY/WX    TMP DP  RH WIND       PRES   REMARKS
CORNING          N/A     73  73 100 S5        29.98S
JONESBORO      CLOUDY    73  72  96 CALM      29.98F
NEWPORT        MOCLDY    74  72  93 CALM      29.99F
WALNUT RIDGE   CLOUDY    73  70  88 S5        29.97S
BLYTHEVILLE    MOCLDY    74  73  97 SE3       29.99F
$$

ARZ022-023-033-042-044-300800-
CENTRAL ARKANSAS

CITY           SKY/WX    TMP DP  RH WIND       PRES   REMARKS
LITTLE ROCK    CLOUDY    74  69  85 CALM      29.98S
N LITTLE ROCK    N/A     73  71  93 SE5       29.98S
JACKSONVILLE   CLOUDY    73  72  95 E2        29.98S
SEARCY         CLOUDY    73  72  97 CALM      29.98F
HOT SPRINGS    CLOUDY    75  71  87 E6        29.98S
RUSSELLVILLE   CLOUDY    73  70  90 CALM      29.97R
CLINTON        FAIR      73  73 100 CALM      29.98S FOG
$$

ARZ036-300800-
EAST ARKANSAS

CITY           SKY/WX    TMP DP  RH WIND       PRES   REMARKS
WEST MEMPHIS   MOCLDY    74  73  97 CALM      29.97F
$$

ARZ050-053-066-070-073-300800-
SOUTHWEST ARKANSAS

CITY           SKY/WX    TMP DP  RH WIND       PRES   REMARKS
ARKADELPHIA    FAIR      76  76 100 CALM      29.97S
CAMDEN         CLOUDY    77  72  83 SE3       29.97F
TEXARKANA      CLOUDY    77  71  82 S7        29.96S
EL DORADO      CLOUDY    77  73  87 S8        29.98S
DE QUEEN       MOCLDY    73  72  96 E3        29.94S FOG
$$

ARZ056-057-069-300800-
SOUTHEAST ARKANSAS

CITY           SKY/WX    TMP DP  RH WIND       PRES   REMARKS
PINE BLUFF     MOCLDY    76  73  91 CALM      29.99S
STUTTGART      MOCLDY    73  70  88 NE5       29.99F
MONTICELLO     LGT RAIN  78  72  81 S3        29.99F

$$




USA.gov is the U.S. government's official web portal to all federal, state and local government web resources and services.